Location: Zagreb
(45.8000°N, 16.0000°E)
Time: 02:10:29
(UTC+02:00)

Transit 2A Rocket - Pass Details

Date: 01 February 2022
Orbit: 592 x 909 km, 66.7° (Epoch: 26 May)

Event Time Altitude Azimuth Distance (km) Brightness Sun altitude
Rises 19:28:19 0° 271° (W) 3,537 9.8 -25.7°
Reaches altitude 10° 19:31:51 10° 291° (WNW) 2,599 8.6 -26.3°
Maximum altitude 19:35:40 17° 331° (NNW) 2,130 7.6 -27.0°
Drops below altitude 10° 19:39:27 10° 10° (N) 2,556 7.6 -27.6°
Enters shadow 19:39:38 - 11° (NNE) 2,598 7.6 -27.7°
Sets 19:42:54 0° 30° (NNE) 3,454 - -28.2°
